Showing default

GLOBALSTAR M072, 31574

Orbit data source: Space-Track

GLOBALSTAR M072, 31574 is a payload satellite owned by Globalstar (US) in LEO that was launched on Tue, 29 May 2007 UTC via a SOYUZ-FG launch vehicle from the Tyuratam Missile And Space Complex (TTMTR). Payload-class satellites include a variety of spacecraft equipped with specific instruments for various scientific and technological missions. These include communications satellites like Starlink; space stations such as the ISS; scientific satellites like the Hubble; Earth observation satellites from companies like Planet Labs, Umbra, and HawkEye 360; GPS; miniature CubeSats for education and research; and military/defense satellites.

Loading next visibility...
Identifier
31574, 2007-020D
Orbit
LEO
Country
Flag of UnknownUnknown / GLOB
Related business
Manufacturer
SS/Loral
Mission
Operational Commercial Communications
Bus & Motor
LS-400, LS-400 AOCS
Mass
450 kg wet, 380 kg dry
Launch date (UTC)
2007-05-29 (18 years ago)
Launch vehicle
SOYUZ-FG
Launch site
Tyuratam Missile And Space Complex (TTMTR)
Object type
Payload
Rocket body
Debris
Shape & HBR
Box + 2 Pan, 6.0 m
Radar Cross Section
5.587 m², Large (>1 m²)

Expand to show TLE details & history
Last TLE update: 7 hours ago

TLE from 7 hours ago
0 GLOBALSTAR M072
1 31574U 07020D   25300.19654782 -.00000063  00000-0  28891-3 0  9992
2 31574  51.9964   0.5292 0001143 201.5531 191.8112 11.91652532847209
Epoch: 2025-10-27T04:43Z
TLE epoch observation values (Epoch: 2025-10-27T04:43:01.731Z)
Latitude
25.74276°
Longitude
-84.007°
Altitude
1,720.283 km
Speed
7.019 km/s
True Right ascension
01h 30m 12s
True Declination
25° 37' 28"
Sunlit
Object was in full shadow at epoch
Visualization orbit readout
Latitude
Unknown
Longitude
Unknown
Altitude
Unknown
Speed
Unknown
Apparent Right ascension
Unknown
Apparent Declination
Unknown
Sunlit
N/A
Visualization observer readout
Local Sidereal Time
06:50:11
Azimuth
Unknown
Elevation
Unknown
Doppler factor
Unknown
Orbital elements
Apogee altitude
1,719.756 km
Perigee altitude
1,717.905 km
Semi-major axis
8,096.967 km
Eccentricity
0.00011
Inclination
51.9964°
RAAN
0.5292°
Arg. of periapsis
201.5531°
True anomaly
191.80852°
Mean anomaly
191.8112°
Eccentric anomaly
191.80986°
Mean motion
2.97893 °/min
Orbital period
120.85 mins
BSTAR
0.00028891
Loading maneuver chart data...
Computing Atmospheric mass density...
Loading historical data...
Loading historical data...
Loading historical data...
Loading historical data...
Loading historical data...
Loading historical data...
Loading historical data...

Documentation

Showing up to 5 results
|